Location: Hohenfelde
(53.8441°N, 9.6220°E)
Time: 11:56:27
(UTC+00:00)

SL-16 R/B - Pass Details

Date: 14 July 2020
Orbit: 985 x 1007 km, 99.5° (Epoch: 13 August)

Event Time Altitude Azimuth Distance (km) Brightness Sun altitude
Exits shadow 01:57:01 - 203° (SSW) 2,872 4.3 -7.9°
Reaches altitude 10° 01:57:20 10° 204° (SSW) 2,771 4.2 -7.9°
Maximum altitude 02:02:50 32° 267° (W) 1,655 3.4 -7.4°
Drops below altitude 10° 02:08:23 10° 329° (NNW) 2,795 5.2 -7.0°
Sets 02:11:12 0° 339° (NNW) 3,751 6.0 -6.7°
